Погода в Знаменке

Россия / Калининградская область     54°21′56″N   21°22′00″E
темп.,
°C
ветер,
м/с
пор.,
м/с
влажн.,
%
обл.,
%
осадки,
мм/ч
давл.,
гПа
погр.,
м
13 апреля, вт
вт1323:00+3сз61093100 1.1 1022600
02:00+3сз41088100 1.1 1023641
05:00+3сз41085100 0.0 1023525
08:00+4сз5981100 0.0 1024487
11:00+6ссз5865100 0.1 10241369
14:00+6с4653100 0.1 10241352
17:00+7с5655100 0.0 10241341
20:00+3с3670100 0.0 1024220
14 апреля, ср
ср1423:00+2ссз3684100 0.0 1023194
02:00+1сз2591100 0.0 1023166
05:00+2сз3690100 0.0 1022247
08:00+3ссз3582100 0.0 1022391
11:00+6с4563100 0.0 10221021
14:00+8с5852100 0.0 10211800
17:00+6с6876100 0.1 1021990
20:00+4с61082100 0.4 1021668
15 апреля, чт
чт1523:00+5ссв5978100 0.1 1021891
02:00+3с71397100 0.6 1020709
05:00+2с71397100 1.5 1019601
08:00+3ссв61295100 1.9 1019696
11:00+4ссв61291100 1.1 1020624
14:00+4св61291100 1.5 1020634
17:00+4св61290100 0.1 1020696
20:00
16 апреля, пт
пт1623:00+4ссв51098100 0.0 1020638
02:00+4ссв4895100 0.1 1020486
05:00+4с4896100 0.0 1019386
08:00+4с4897100 1.0 1020423
11:00+5с4895100 0.3 1020456
14:00+5ссв4795100 0.3 1020476
17:00+6с4795100 0.0 1020393
20:00+8св41092100 0.1 1022458
17 апреля, сб
сб1723:00+8св41097100 0.6 1021503
02:00+8св499798 0.8 1021364
05:00+7св499799 0.0 1021295
08:00+8св5994100 0.0 1022413
11:00+11всв5782100 0.0 1023718
14:00+14всв687486 0.1 10231119
17:00+13в5108099 0.2 1024790
20:00+11всв3888100 0.3 1025261